TimeAKDT,TemperatureF,Dew PointF,Humidity,Sea Level PressureIn,VisibilityMPH,Wind Direction,Wind SpeedMPH,Gust SpeedMPH,PrecipitationIn,Events,Conditions,WindDirDegrees,DateUTC
12:16 AM,39.2,21.2,49,30.32,10.0,Calm,Calm,-,N/A,,Overcast,0,2014-05-15 08:16:00
12:36 AM,37.4,21.2,52,30.32,10.0,Calm,Calm,-,N/A,,Overcast,0,2014-05-15 08:36:00
12:56 AM,37.4,23.0,56,30.31,10.0,Calm,Calm,-,N/A,,Overcast,0,2014-05-15 08:56:00
1:16 AM,37.4,23.0,56,30.31,10.0,Calm,Calm,-,N/A,,Mostly Cloudy,0,2014-05-15 09:16:00
1:36 AM,37.4,23.0,56,30.31,10.0,SW,3.5,-,N/A,,Clear,230,2014-05-15 09:36:00
1:56 AM,37.4,21.2,52,30.30,10.0,SSW,3.5,-,N/A,,Clear,200,2014-05-15 09:56:00
2:16 AM,37.4,21.2,52,30.30,10.0,Calm,Calm,-,N/A,,Scattered Clouds,0,2014-05-15 10:16:00
2:36 AM,37.4,23.0,56,30.30,10.0,South,4.6,-,N/A,,Overcast,170,2014-05-15 10:36:00
2:56 AM,37.4,23.0,56,30.29,10.0,SW,11.5,-,N/A,,Overcast,220,2014-05-15 10:56:00
3:16 AM,39.2,21.2,49,30.29,8.0,SW,9.2,-,N/A,,Overcast,230,2014-05-15 11:16:00
3:36 AM,39.2,21.2,49,30.29,10.0,SW,9.2,-,N/A,,Overcast,230,2014-05-15 11:36:00
3:56 AM,37.4,21.2,52,30.29,10.0,SW,8.1,-,N/A,,Overcast,230,2014-05-15 11:56:00
4:16 AM,37.4,21.2,52,30.28,10.0,SW,5.8,-,N/A,,Overcast,220,2014-05-15 12:16:00
4:36 AM,37.4,23.0,56,30.28,10.0,South,6.9,-,N/A,,Overcast,190,2014-05-15 12:36:00
4:56 AM,37.4,23.0,56,30.28,10.0,SSW,8.1,-,N/A,,Overcast,210,2014-05-15 12:56:00
5:16 AM,39.2,23.0,52,30.27,10.0,SSW,5.8,-,N/A,,Overcast,210,2014-05-15 13:16:00
5:36 AM,39.2,23.0,52,30.27,10.0,SSW,6.9,-,N/A,,Mostly Cloudy,210,2014-05-15 13:36:00
5:56 AM,39.2,23.0,52,30.27,10.0,SW,8.1,-,N/A,,Overcast,220,2014-05-15 13:56:00
6:16 AM,39.2,24.8,56,30.27,10.0,SSW,9.2,-,N/A,,Overcast,210,2014-05-15 14:16:00
6:36 AM,39.2,24.8,56,30.26,10.0,South,10.4,-,N/A,,Partly Cloudy,190,2014-05-15 14:36:00
6:56 AM,39.2,24.8,56,30.26,10.0,South,9.2,-,N/A,,Clear,190,2014-05-15 14:56:00
7:16 AM,39.2,24.8,56,30.26,10.0,SSW,9.2,-,N/A,,Clear,210,2014-05-15 15:16:00
7:36 AM,39.2,23.0,52,30.27,10.0,SSW,6.9,-,N/A,,Scattered Clouds,200,2014-05-15 15:36:00
7:56 AM,39.2,23.0,52,30.27,10.0,SSW,6.9,-,N/A,,Partly Cloudy,200,2014-05-15 15:56:00
8:16 AM,41.0,23.0,49,30.26,10.0,SSW,11.5,-,N/A,,Clear,200,2014-05-15 16:16:00
8:36 AM,42.8,24.8,49,30.25,10.0,SSW,10.4,-,N/A,,Clear,210,2014-05-15 16:36:00
8:56 AM,42.8,24.8,49,30.25,10.0,South,16.1,-,N/A,,Clear,190,2014-05-15 16:56:00
9:16 AM,42.8,24.8,49,30.25,10.0,SSW,12.7,-,N/A,,Clear,200,2014-05-15 17:16:00
9:36 AM,42.8,24.8,49,30.24,9.0,SSW,11.5,-,N/A,,Clear,210,2014-05-15 17:36:00
9:56 AM,42.8,24.8,49,30.24,8.0,South,13.8,-,N/A,,Scattered Clouds,190,2014-05-15 17:56:00
10:16 AM,44.6,24.8,46,30.23,10.0,SSW,11.5,-,N/A,,Partly Cloudy,200,2014-05-15 18:16:00
11:16 AM,46.4,26.6,46,30.23,9.0,SSW,13.8,18.4,N/A,,Clear,200,2014-05-15 19:16:00
11:36 AM,46.4,24.8,43,30.23,10.0,SW,11.5,-,N/A,,Clear,220,2014-05-15 19:36:00
11:56 AM,48.2,26.6,43,30.23,8.0,SSW,12.7,-,N/A,,Clear,210,2014-05-15 19:56:00
12:16 PM,48.2,24.8,40,30.23,10.0,SW,12.7,19.6,N/A,,Clear,220,2014-05-15 20:16:00
12:36 PM,48.2,26.6,43,30.22,5.0,SSW,11.5,-,N/A,,Clear,210,2014-05-15 20:36:00
12:56 PM,50.0,26.6,40,30.22,8.0,SSW,10.4,-,N/A,,Partly Cloudy,200,2014-05-15 20:56:00
1:16 PM,51.8,26.6,38,30.23,7.0,SSW,12.7,19.6,N/A,,Clear,200,2014-05-15 21:16:00
1:36 PM,50.0,26.6,40,30.22,6.0,SW,12.7,18.4,N/A,,Clear,220,2014-05-15 21:36:00
1:56 PM,50.0,26.6,40,30.22,9.0,SSW,11.5,-,N/A,,Clear,210,2014-05-15 21:56:00
2:16 PM,50.0,26.6,40,30.21,9.0,South,10.4,-,N/A,,Scattered Clouds,180,2014-05-15 22:16:00
2:36 PM,51.8,26.6,38,30.20,10.0,South,10.4,17.3,N/A,,Scattered Clouds,170,2014-05-15 22:36:00
2:56 PM,51.8,26.6,38,30.20,10.0,South,11.5,18.4,N/A,,Partly Cloudy,170,2014-05-15 22:56:00
3:16 PM,51.8,26.6,38,30.19,10.0,SSE,9.2,-,N/A,,Partly Cloudy,160,2014-05-15 23:16:00
3:36 PM,51.8,26.6,38,30.18,10.0,SSE,11.5,16.1,N/A,,Clear,160,2014-05-15 23:36:00
3:56 PM,51.8,26.6,38,30.18,10.0,South,11.5,-,N/A,,Mostly Cloudy,170,2014-05-15 23:56:00
4:16 PM,50.0,26.6,40,30.17,10.0,SSE,12.7,-,N/A,,Mostly Cloudy,160,2014-05-16 00:16:00
4:36 PM,50.0,26.6,40,30.16,10.0,SSE,11.5,-,N/A,,Mostly Cloudy,150,2014-05-16 00:36:00
4:56 PM,50.0,26.6,40,30.16,10.0,SSE,10.4,16.1,N/A,,Overcast,150,2014-05-16 00:56:00
5:16 PM,51.8,26.6,38,30.15,10.0,SSE,12.7,18.4,N/A,,Overcast,150,2014-05-16 01:16:00
5:36 PM,51.8,26.6,38,30.15,10.0,South,10.4,-,N/A,,Overcast,170,2014-05-16 01:36:00
5:56 PM,51.8,26.6,38,30.14,10.0,South,12.7,18.4,N/A,,Overcast,170,2014-05-16 01:56:00
6:16 PM,51.8,26.6,38,30.14,10.0,South,13.8,20.7,N/A,,Overcast,180,2014-05-16 02:16:00
6:36 PM,51.8,26.6,38,30.14,10.0,South,9.2,-,N/A,,Overcast,190,2014-05-16 02:36:00
6:56 PM,51.8,26.6,38,30.12,6.0,SSE,13.8,18.4,N/A,,Overcast,160,2014-05-16 02:56:00
7:16 PM,51.8,26.6,38,30.12,10.0,South,10.4,16.1,N/A,,Overcast,180,2014-05-16 03:16:00
7:36 PM,51.8,26.6,38,30.11,10.0,SSW,10.4,18.4,N/A,,Overcast,210,2014-05-16 03:36:00
7:56 PM,51.8,26.6,38,30.11,10.0,WSW,10.4,16.1,N/A,,Overcast,240,2014-05-16 03:56:00
8:16 PM,50.0,26.6,40,30.11,10.0,SW,12.7,-,N/A,,Overcast,230,2014-05-16 04:16:00
8:36 PM,48.2,28.4,46,30.10,8.0,SSW,12.7,17.3,N/A,,Overcast,200,2014-05-16 04:36:00
8:56 PM,48.2,26.6,43,30.10,10.0,SW,8.1,-,N/A,,Overcast,230,2014-05-16 04:56:00
9:16 PM,48.2,26.6,43,30.10,9.0,SSW,6.9,-,N/A,,Overcast,210,2014-05-16 05:16:00
9:36 PM,48.2,28.4,46,30.09,10.0,SSW,8.1,-,N/A,,Overcast,210,2014-05-16 05:36:00
9:56 PM,46.4,28.4,50,30.08,7.0,SSW,6.9,-,N/A,,Overcast,200,2014-05-16 05:56:00
10:16 PM,46.4,28.4,50,30.08,8.0,SW,6.9,-,N/A,,Overcast,220,2014-05-16 06:16:00
10:36 PM,46.4,26.6,46,30.07,5.0,SW,5.8,-,N/A,,Mostly Cloudy,220,2014-05-16 06:36:00
10:56 PM,46.4,26.6,46,30.07,10.0,South,8.1,-,N/A,,Overcast,190,2014-05-16 06:56:00
11:16 PM,46.4,28.4,50,30.07,10.0,South,6.9,-,N/A,,Overcast,170,2014-05-16 07:16:00
11:36 PM,46.4,26.6,46,30.06,10.0,South,8.1,-,N/A,,Overcast,170,2014-05-16 07:36:00
11:56 PM,46.4,26.6,46,30.06,10.0,South,6.9,-,N/A,,Overcast,180,2014-05-16 07:56:00